Location: *
(39.6167°S, 171.5333°W)
Time: 18:52:00
(UTC+00:00)

Cosmos 1633 - Pass Details

Date: 13 May 2021
Orbit: 460 x 478 km, 82.5° (Epoch: 19 June)

Event Time Altitude Azimuth Distance (km) Brightness Sun altitude
Rises 17:26:57 0° 192° (SSW) 2,571 6.0 -10.9°
Reaches altitude 10° 17:29:06 10° 196° (SSW) 1,685 5.0 -10.5°
Maximum altitude 17:32:43 57° 275° (W) 579 2.6 -9.8°
Drops below altitude 10° 17:36:17 10° 353° (N) 1,662 5.4 -9.2°
Sets 17:38:23 0° 357° (N) 2,532 6.4 -8.8°
